Regional Weather Roundup
Issued by NWS

Home | Current Version | Previous Version | Graphics & Text | Print | Product List | Glossary On
Versions: 1 2 3 4 5 6 7 8 9 10 11 12 13 14 15 16 17 18 19 20 21 22 23 24 25 26 27 28 29 30 31 32 33 34 35 36 37 38 39 40 41 42 43 44 45 46 47 48 49 50
000
ASUS43 KMKX 201521
RWRWI

WISCONSIN REGIONAL WEATHER ROUNDUP
NATIONAL WEATHER SERVICE MILWAUKEE/SULLIVAN WI
1000 AM CDT SAT SEP 20 2014

NOTE: "FAIR" INDICATES FEW OR NO CLOUDS BELOW 12,000 FEET WITH NO
SIGNIFICANT WEATHER AND/OR OBSTRUCTIONS TO VISIBILITY.

WIZ001-002-006>008-014>016-023>028-201600-
NORTHWEST WISCONSIN

CITY           SKY/WX    TMP DP  RH WIND       PRES   REMARKS
SUPERIOR ARPT  CLOUDY    62  55  77 W6        29.72R
ASHLAND        CLOUDY    66  58  75 W8G18     29.69R
HAYWARD        MOSUNNY   65  56  72 NW10G17   29.73R
SIREN          PTSUNNY   65  58  79 NW10      29.76R
RICE LAKE      CLOUDY    64  58  78 W8        29.76R
LADYSMITH      CLOUDY    67  60  76 W12       29.75R
EAU CLAIRE     CLOUDY    69  61  75 NW12      29.75R
MENOMONIE      CLOUDY    67  60  78 W8G18     29.76R
NEW RICHMOND   PTSUNNY   64  59  82 NW9G16    29.78S
OSCEOLA        PTSUNNY   65  61  86 W10       29.80S
$$

WIZ003>005-009-010-017-018-201600-
NORTH CENTRAL WISCONSIN

CITY           SKY/WX    TMP DP  RH WIND       PRES   REMARKS
WOODRUFF       CLOUDY    67  61  79 W10       29.69R
RHINELANDER    PTSUNNY   70  61  73 W16G26    29.69S
EAGLE RIVER    CLOUDY    69  60  71 W16       29.67S
LAND O LAKES   PTSUNNY   68  60  75 W8G20     29.67R
PHILLIPS       CLOUDY    65  60  82 W8G17     29.71R
TOMAHAWK       PTSUNNY   68  61  76 W9G17     29.70S
MEDFORD        CLOUDY    66  62  88 W12       29.72F
MERRILL        CLOUDY    68  63  85 W14G20    29.70S
$$

WIZ029-030-035-036-043>047-201600-
CENTRAL WISCONSIN

CITY           SKY/WX    TMP DP  RH WIND       PRES   REMARKS
WAUSAU         CLOUDY    68  62  81 W18G24    29.70R
MOSINEE        CLOUDY    66  66 100 W12G23    29.73R
MARSHFIELD     CLOUDY    68  63  84 W13       29.73S
STEVENS POINT  CLOUDY    65  61  88 SW8       29.74R
WAUPACA        MOSUNNY   70  66  87 SW9       29.73S
WAUTOMA        SUNNY     72  65  78 W12       29.74F
WISC RAPIDS    PTSUNNY   68  63  84 SW8       29.76R
CAMP DOUGLAS   PTSUNNY   70  68  94 W14G23    29.75S
$$

WIZ011>013-019>022-031-037>040-048>050-201600-
NORTHEAST WISCONSIN

CITY           SKY/WX    TMP DP  RH WIND       PRES   REMARKS
ANTIGO         CLOUDY    65  61  86 W15G22    29.71S
STURGEON BAY   PTSUNNY   70  61  73 W24G32    29.68S
GREEN BAY      MOSUNNY   69  63  81 SW10G21   29.71S
MANITOWOC      CLOUDY    69  63  81 SW16      29.73S
APPLETON       MOSUNNY   70  63  78 W15       29.72F
CLINTONVILLE   CLOUDY    68  63  83 SW9G17    29.70S
OSHKOSH        PTSUNNY   70  63  78 SW15G23   29.72F
$$

WIZ032>034-041-042-053>061-201600-
SOUTHWEST WISCONSIN

CITY           SKY/WX    TMP DP  RH WIND       PRES   REMARKS
LA CROSSE      CLOUDY    69  63  81 SW3       29.75F
SPARTA         LGT RAIN  67  61  81 W7        29.77F
VIROQUA        PTSUNNY   66  66  99 SW8       29.78F
BOSCOBEL       PTSUNNY   70  63  78 SW7       29.80F
PRAIRIE DU CHI PTSUNNY   70  61  73 SW8       29.80F
PLATTEVILLE    FAIR      70  65  83 SW10      29.84F
$$

WIZ056-057-062-063-064-067-068-201600-
SOUTH CENTRAL WISCONSIN

CITY           SKY/WX    TMP DP  RH WIND       PRES   REMARKS
BARABOO/DELLS  MOSUNNY   69  62  77 W14G20    29.77S
LONE ROCK      PTSUNNY   73  63  70 SW7       29.79S
WATERTOWN      CLOUDY    67  63  86 S15       29.80F
MADISON        CLOUDY    69  62  78 SW8       29.81R
MIDDLETON      FAIR      70  63  78 SW10G16   29.81R
MONROE         PTSUNNY   68  63  83 SW16G24   29.83F
JANESVILLE     SUNNY     72  63  73 SW9       29.83S
$$

WIZ051-052-058>065-066-070>072-201600-
SOUTHEAST WISCONSIN

CITY           SKY/WX    TMP DP  RH WIND       PRES   REMARKS
MILWAUKEE      CLOUDY    67  59  75 SW14      29.82S
WAUKESHA       PTSUNNY   63  59  88 SW10      29.83F
MILWAUKEE/TIMM SUNNY     66  59  77 SW12G18   29.82F
RACINE         CLOUDY    69  60  73 SW16G22   29.84S
BURLINGTON     CLOUDY    67  59  76 SW13G18   29.83F
KENOSHA        PTSUNNY   70  61  73 SW16G23   29.83R
FOND DU LAC    PTSUNNY   68  62  81 SW17      29.75F
SHEBOYGAN      CLOUDY    67  61  81 SW13      29.75S
WEST BEND      PTSUNNY   64  59  82 SW8       29.78F
JUNEAU         PTSUNNY   66  63  88 S14       29.80S
$$

LSZ147-162-201600-
LAKE SUPERIOR

STATION/POSITION TIME  TEMP    WIND        PRES    WAVE
                       AIR SEA DIR/SP/G            HT/PER
                 (UTC) (F)     (DEG/KT/KT) (MB)    (FT/S)
W MID LAKE BUOY  1450   54 47  260/ 17/ 19 1001.8R   2/ 3
DEVILS ISLAND    1500   56     250/ 15/ 17 1004.2R
PORT WING        1400   61     270/ 15/ 19 1005.1R
SAXON HARBOR     1400   68     250/  3/ 11 1004.4
$$

LMZ867-665-643>646-201600-
LAKE MICHIGAN

STATION/POSITION TIME  TEMP    WIND        PRES    WAVE
                       AIR SEA DIR/SP/G            HT/PER
                 (UTC) (F)     (DEG/KT/KT) (MB)    (FT/S)
N MID LAKE BUOY  1450   60 58  200/ 19/ 25 1004.0F   5/ 7
NORTHPORT PIER   1400   63     200/  4/  8 1004.1R
KEWAUNEE LAKESHO 1500   69     220/ 11/ 19 1004.9F
SHEBOYGAN LAKESH 1500   67 54  230/  9/ 11 1007.3F
PORT WASHINGTON  1420   69     240/ 10/ 19 1009.1S
ATWATER BUOY     1400   63     230/ 14/ 21 1010.5R
MILWAUKEE LAKESH 1500   67     240/ 15/ 20   N/A
S MID LAKE BUOY  1450   65 63  220/ 21/ 25 1010.1R   5/ 6
KENOSHA   LAKESH 1500   68     240/ 12/ 21 1010.2R
$$

TC  - TEMPERATURE IN CELSIUS
VSB - VISIBILITY IN STATUTE MILES
WCI - WIND CHILL INDEX
HX  - HEAT INDEX




USA.gov is the U.S. government's official web portal to all federal, state and local government web resources and services.